www.pogodaiklimat.ru

Погода и климат >> Архив погоды >> Парагвай >> Сан Хуан Батистута


ПОГОДА в Сан Хуан Батистута

  • Прогноз погоды в Сан Хуан Батистута
  • Монитор погоды в Сан Хуан Батистута

АРХИВ ПОГОДЫ в Сан Хуан Батистута

Время (UTC), дата Ветер
(напр.,м/с)
 
Видим.   Явления Облачность Т
(С)
Тd
(С)
f
(%)
Тe
(С)
Тes
(С)
Комфортность P
(гПа)
Po
(гПа)
Тmin
(С)
Tmax
(С)
R
(мм)
R24
(мм)
S
(см)
03 17.02 штиль 0 20 км ясно +21.4 +18.2 82 +26 +26 душно 1009.1 994.0
15 17.02 штиль 0 20 км 5/0 1500 м
[Ac und]
+27.0 +19.3 63 +33 +50 очень
душно
1010.0 995.0
21 17.02 штиль 0 20 км ясно +27.0 +19.3 63 +33 +35 очень
душно
1007.5 992.6
00 18.02 штиль 0 20 км ясно +25.0 +18.7 68 +30 +30 душно 1007.3 992.5 +30.0
03 18.02 штиль 0 20 км ясно +22.0 +17.1 74 +26 +26 душно 1008.8 993.6
09 18.02 штиль 0 20 км ясно +20.0 +17.8 87 +23 +23 комфорт 1009.0 994.0
12 18.02 штиль 0 20 км ясно +24.0 +16.7 64 +28 +37 душно 1009.5 995.0 +20.0
15 18.02 штиль 0 20 км ясно +27.6 +18.7 58 +33 +59 опасность
солнечного
удара
1009.1 994.6
18 18.02 С 2 20 км 8/0 600 м
[Ac As]
+32.0 +19.9 49 +38 +45 очень
душно
1008.1 993.3
21 18.02 З 2 20 км 4/4 900 м
[Cu med, cong]
+31.8 +11.9 30 +32 +33 жарко 1005.6 990.9
00 19.02 З 2 20 км 6/6 800 м
[Cu Sc]
+27.4 +22.3 74 +36 +36 очень
душно
1006.2 991.3 +32.6
03 19.02 З 2 20 км 6/6 800 м
[Sc]
+23.4 +16.2 64 +28 +28 душно 1005.6 991.7
09 19.02 штиль 0 20 км ясно +22.0 +17.1 74 +26 +26 душно 1007.9 992.7
12 19.02 штиль 0 20 км ясно +25.4 +18.7 66 +30 +40 душно 1008.3 993.3 +20.0
15 19.02 штиль 0 20 км ясно +28.0 +18.8 57 +33 +60 опасность
солнечного
удара
1007.3 992.3
18 19.02 З 2 20 км 6/6 800 м
[Cu Sc]
+31.8 +21.8 55 +40 +46 очень
душно
1006.6 991.9
21 19.02 Ю 3 20 км 8/8 800 м
[Cu Sc]
+32.2 +19.7 48 +38 +39 очень
душно
1005.5 990.8
00 20.02 Ю 2 20 км ясно +28.0 +22.0 70 +36 +36 очень
душно
1007.2 992.3 +33.0
03 20.02 Ю 3 20 км ясно +25.4 +16.8 59 +29 +29 душно 1008.6 993.7
15 20.02 штиль 0 20 км 3/3 1000 м
[Cu hum]
+29.0 +21.6 64 +37 +55 опасность
солнечного
удара
1009.6 994.7
18 20.02 В 2 20 км 8/8 800 м
[Cu Sc]
+35.0 +20.1 42 +41 +44 опасность
перегрева
1007.7 992.8
21 20.02 В 2 20 км 8/8 800 м
[Cu Sc]
+34.8 +26.8 63 +52 +52 опасность
перегрева
1006.1 991.3
00 21.02 В 3 20 км ясно +29.2 +17.9 51 +34 +34 очень
душно
1007.5 992.7 +35.2
03 21.02 В 2 20 км ясно +24.0 +17.3 66 +28 +28 душно 1008.5 993.7
09 21.02 штиль 0 20 км ясно +23.6 +17.4 68 +27 +27 жарко 1009.5 994.3
12 21.02 штиль 0 20 км ясно +25.6 +19.7 70 +31 +40 очень
душно
1010.5 995.5 +22.0
15 21.02 С 2 20 км ясно +30.0 +21.1 59 +38 +57 опасность
солнечного
удара
1010.0 995.0
18 21.02 В 3 20 км 8/8 800 м
[Cu Sc]
+34.2 +20.5 45 +41 +43 опасность
перегрева
1010.3 995.7
21 21.02 В 2 20 км 8/8 800 м
[Cu Sc]
+34.2 +20.5 45 +41 +41 опасность
перегрева
1007.7 993.1
00 22.02 В 2 20 км 6/6 800 м
[Sc]
+29.6 +21.3 61 +37 +37 очень
душно
1009.4 994.6 +35.5
03 22.02 штиль 0 20 км 5/5 800 м
[Sc]
+25.4 +16.8 59 +29 +29 душно 1001.0 995.8
06 22.02 С 1 20 км ясно +23.6 +18.6 74 +28 +28 душно 1010.8 995.8
09 22.02 штиль 0 20 км ясно +23.0 +20.8 87 +30 +30 очень
душно
1011.0 996.0
15 22.02 С 3 20 км ясно +29.2 +18.0 51 +34 +51 опасность
солнечного
удара
1011.6 996.7
18 22.02 штиль 0 20 км ясно +34.8 +26.8 63 +52 +72 опасность
перегрева
1001.0 995.8
21 22.02 СЗ 1 20 км 5/5 1200 м
[Cu med, cong]
+36.0 +15.5 30 +38 +39 очень
душно
1007.1 992.6
00 23.02 штиль 0 20 км ясно +30.6 +20.5 55 +38 +38 очень
душно
1008.2 993.5 +37.0
03 23.02 СЗ 2 20 км ясно +28.0 +23.5 77 +38 +38 очень
душно
1009.6 994.8
06 23.02 СЗ 2 20 км ясно +24.0 +17.3 66 +28 +28 душно 1008.5 993.7
09 23.02 штиль 0 20 км ясно +23.4 +16.2 64 +28 +28 душно 1006.1 992.9
12 23.02 СВ 1 20 км ясно +29.6 +22.8 67 +39 +47 очень
душно
1008.7 993.9 +17.5
21 23.02 СВ 2 20 км ясно +36.0 +15.5 30 +38 +39 очень
душно
1004.3 990.0

 

Местоположение метеостанции Сан Хуан Батистута (Парагвай): широта -26.66 долгота -57.15 высота над уровнем моря 126 м.

В архиве по умолчанию представлена погода в Сан Хуан Батистута за последнюю неделю. Архивные данные за месяц целиком и за предыдущие месяцы, начиная с января 2011 года, Вы можете получить, выбрав интересующий диапазон дат из раскрывающегося списка и нажав кнопку "Ввод!".


*Определитесь, кто Вы:
робот инопланетянин человек

Внимание! Время в таблицах - всемирное. Для получения местного времени необходимо прибавить поправку, которая равна -4 ч.

Смотрите также архив погоды в соседних городах и на ближайших метеорологических станциях:

Погода в Куйкуйо (Парагвай) (52 км)
Погода в Каасапе (Парагвай) (96 км)
Погода в Парагуари (Парагвай) (115 км)
Погода в Пиларе (Парагвай) (117 км)
Погода в Формосе (Аргентина) (119 км)
Погода в Вильяррике (Парагвай) (124 км)
Погода в Посадасе (Аргентина) (141 км)
Погода в Энкарнасьоне (Парагвай) (149 км)
Погода в Коронель-Овьедо (Парагвай) (156 км)
Погода в Асунсьоне (Парагвай) (161 км)

Пояснения к столбцам:

Ветер - указаны скорость ветра в м/с - средняя за 10 мин, порывы в срок и между сроками (в фигурных скобках) и направление, откуда дует ветер: С - северный, СВ - северо-восточный, В - восточный, ЮВ - юго-восточный, Ю - южный, ЮЗ - юго-западный, З - западный, СЗ - северо-западный.
Видимость - горизонтальная дальность видимости в метрах или километрах. При видимости от 1 до 10 км при отсутствии осадков обычно наблюдается дымка, при ухудшении видимости до 1 км и менее - туман. В сухую погоду видимость может ухудшаться дымом, пылью или мглою.
Явления - указаны атмосферные явления, наблюдавшиеся в срок или в последний час перед сроком; фигурными скобками обозначены явления, наблюдавшиеся между сроками (за 1-3 часа до срока); квадратными скобками обозначены град или гололедные отложения с указанием их диаметра в мм.
Облачность - указаны через наклонную черту общая и нижняя облачность в баллах и высота нижней границы облаков в метрах; квадратными скобками обозначены формы облаков: Ci - перистые, Cs - перисто-слоистые, Cc - перисто-кучевые, Ac - высококучевые, As - высокослоистые, Sc - слоисто-кучевые, Ns - слоисто-дождевые, Cu - кучевые, Cb - кучево-дождевые. Подробнее классификацию облаков см. в Атласе облаков (PDF).
T - Температура воздуха - температура, измеренная на высоте 2 м над землей.
Td - Температура точки росы - температура, при понижении до которой содержащийся в воздухе водяной пар достигнет насыщения.
f - Относительная влажность воздуха - влажноcть воздуха, измеренная на высоте 2 м над землей.
Te - Эффективная температура - температура, которую ощущает одетый по сезону человек в тени. Характеристика душности погоды. При расчете учитывается влияние влажности воздуха и скорости ветра на теплоощущения человека.
Tes - Эффективная температура на солнце - температура, которую ощущает человек, с поправкой на солнечный нагрев. Характеристика знойности погоды. Зависит от высоты солнца над горизонтом, облачности и скорости ветра. Ночью, в пасмурную погоду, а также при ветре 12 м/с и более поправка равна нулю.
P - Атмосферное давление - приведенное к уровню моря атмосферное давление.
Po - Атмосферное давление - измеренное на уровне метеостанции атмосферное давление.
Tmin - Минимальная температура - минимум температуры воздуха на высоте 2 м над землей.
Tmax - Максимальная температура - максимум температуры воздуха на высоте 2 м над землей.
R - Количество осадков - Количество выпавших осадков за период времени, мм. При наведении курсора мыши на число - период времени, за который выпало указанное количество осадков.
R24 - Количество осадков - Количество выпавших осадков за 24 часа, мм.
S - Снежный покров - Высота снежного покрова, см. При наведении курсора мыши на число - состояние снежного покрова и степень покрытия местности в баллах.